Location: Allie Creek
(37.5926°N, 89.8526°W)
Time: 20:32:05
(UTC+00:00)

USA 215 - Pass Details

Date: 26 September 2023
Orbit: 1098 x 1109 km, 123.0° (Epoch: 06 December)

Event Time Altitude Azimuth Distance (km) Brightness Sun altitude
Exits shadow 02:01:51 - 39° (NE) 3,201 5.5 -26.1°
Reaches altitude 10° 02:02:29 10° 38° (NE) 2,967 5.3 -26.2°
Maximum altitude 02:08:53 59° 321° (NW) 1,265 3.7 -27.4°
Drops below altitude 10° 02:15:16 10° 244° (WSW) 2,964 6.0 -28.6°
Sets 02:17:47 0° 241° (WSW) 3,921 6.6 -29.0°
